Previsão horária em Aliso Viejo

Hoje, 14 Junho, Segunda-feira

Tempo Temperatura Precipitação Vento Pressão Humidade
00:00 +20°C° 0 mm 1 m/s 745 mmHg 66%
01:00 +20°C° 0 mm 1 m/s 745 mmHg 67%
02:00 +19°C° 0 mm 1 m/s 745 mmHg 68%
03:00 +19°C° 0 mm 1 m/s 745 mmHg 69%
04:00 +19°C° 0 mm 1 m/s 745 mmHg 71%
05:00 +21°C° 0 mm 1 m/s 745 mmHg 63%
06:00 +21°C° 0 mm 0 m/s 746 mmHg 56%
07:00 +23°C° 0 mm 0 m/s 746 mmHg 48%
08:00 +27°C° 0 mm 1 m/s 746 mmHg 42%
09:00 +29°C° 0 mm 2 m/s 746 mmHg 37%
10:00 +31°C° 0 mm 3 m/s 746 mmHg 31%
11:00 +33°C° 0 mm 3 m/s 746 mmHg 31%
12:00 +34°C° 0 mm 4 m/s 745 mmHg 30%
13:00 +35°C° 0 mm 4 m/s 745 mmHg 29%
14:00 +34°C° 0 mm 4 m/s 745 mmHg 31%
15:00 +34°C° 0 mm 4 m/s 745 mmHg 32%
16:00 +33°C° 0 mm 4 m/s 745 mmHg 33%
17:00 +30°C° 0 mm 3 m/s 745 mmHg 38%
18:00 +28°C° 0 mm 3 m/s 745 mmHg 44%
19:00 +26°C° 0 mm 2 m/s 745 mmHg 50%
20:00 +25°C° 0 mm 2 m/s 745 mmHg 53%
21:00 +24°C° 0 mm 1 m/s 745 mmHg 56%
22:00 +23°C° 0 mm 1 m/s 745 mmHg 60%
23:00 +23°C° 0 mm 1 m/s 745 mmHg 59%

Amanhã, 15 Junho, Terça-feira

Tempo Temperatura Precipitação Vento Pressão Humidade
00:00 +23°C° 0 mm 1 m/s 744 mmHg 59%
01:00 +23°C° 0 mm 1 m/s 744 mmHg 59%
02:00 +23°C° 0 mm 1 m/s 744 mmHg 58%
03:00 +23°C° 0 mm 1 m/s 744 mmHg 57%
04:00 +23°C° 0 mm 1 m/s 744 mmHg 57%
05:00 +24°C° 0 mm 1 m/s 744 mmHg 51%
06:00 +26°C° 0 mm 1 m/s 745 mmHg 45%
07:00 +28°C° 0 mm 1 m/s 745 mmHg 40%
08:00 +30°C° 0 mm 1 m/s 745 mmHg 37%
09:00 +31°C° 0 mm 1 m/s 745 mmHg 34%
10:00 +34°C° 0 mm 2 m/s 745 mmHg 31%
11:00 +35°C° 0 mm 3 m/s 745 mmHg 27%
12:00 +37°C° 0 mm 4 m/s 744 mmHg 23%
13:00 +40°C° 0 mm 5 m/s 743 mmHg 20%
14:00 +39°C° 0 mm 5 m/s 743 mmHg 20%
15:00 +39°C° 0 mm 5 m/s 743 mmHg 20%
16:00 +38°C° 0 mm 4 m/s 742 mmHg 20%
17:00 +35°C° 0 mm 4 m/s 742 mmHg 26%
18:00 +33°C° 0 mm 3 m/s 743 mmHg 31%
19:00 +29°C° 0 mm 2 m/s 743 mmHg 36%
20:00 +28°C° 0 mm 2 m/s 743 mmHg 41%
21:00 +27°C° 0 mm 2 m/s 743 mmHg 45%
22:00 +26°C° 0 mm 3 m/s 744 mmHg 49%
23:00 +25°C° 0 mm 3 m/s 743 mmHg 52%

Depois de amanhã, 16 Junho, Quarta-feira

Tempo Temperatura Precipitação Vento Pressão Humidade
00:00 +24°C° 0 mm 3 m/s 743 mmHg 54%
01:00 +24°C° 0 mm 2 m/s 743 mmHg 57%
02:00 +24°C° 0 mm 2 m/s 743 mmHg 55%
03:00 +24°C° 0 mm 2 m/s 743 mmHg 53%
04:00 +25°C° 0 mm 1 m/s 743 mmHg 50%
05:00 +26°C° 0 mm 1 m/s 743 mmHg 46%
06:00 +28°C° 0 mm 1 m/s 743 mmHg 41%
07:00 +30°C° 0 mm 2 m/s 743 mmHg 37%
08:00 +31°C° 0 mm 2 m/s 743 mmHg 37%
09:00 +31°C° 0 mm 3 m/s 743 mmHg 37%
10:00 +33°C° 0 mm 4 m/s 744 mmHg 37%
11:00 +33°C° 0 mm 4 m/s 744 mmHg 36%
12:00 +33°C° 0 mm 4 m/s 743 mmHg 36%
13:00 +33°C° 0 mm 4 m/s 743 mmHg 36%
14:00 +33°C° 0 mm 4 m/s 743 mmHg 37%
15:00 +32°C° 0 mm 4 m/s 743 mmHg 38%
16:00 +32°C° 0 mm 4 m/s 743 mmHg 39%
17:00 +29°C° 0 mm 4 m/s 743 mmHg 44%
18:00 +27°C° 0 mm 3 m/s 743 mmHg 50%
19:00 +25°C° 0 mm 3 m/s 743 mmHg 55%
20:00 +25°C° 0 mm 3 m/s 744 mmHg 57%
21:00 +24°C° 0 mm 3 m/s 744 mmHg 58%
22:00 +24°C° 0 mm 2 m/s 744 mmHg 60%
23:00 +23°C° 0 mm 2 m/s 744 mmHg 62%

17 Junho, Quinta-feira

Tempo Temperatura Precipitação Vento Pressão Humidade
00:00 +23°C° 0 mm 2 m/s 743 mmHg 65%
01:00 +21°C° 0 mm 2 m/s 743 mmHg 67%
02:00 +22°C° 0 mm 1 m/s 743 mmHg 66%
03:00 +23°C° 0 mm 1 m/s 743 mmHg 64%
04:00 +23°C° 0 mm 1 m/s 742 mmHg 62%
05:00 +25°C° 0 mm 1 m/s 742 mmHg 57%
06:00 +26°C° 0 mm 1 m/s 743 mmHg 51%
07:00 +28°C° 0 mm 1 m/s 743 mmHg 46%
08:00 +29°C° 0 mm 2 m/s 743 mmHg 43%
09:00 +31°C° 0 mm 3 m/s 743 mmHg 40%
10:00 +33°C° 0 mm 3 m/s 744 mmHg 37%
11:00 +34°C° 0 mm 3 m/s 743 mmHg 36%
12:00 +34°C° 0 mm 3 m/s 743 mmHg 35%
13:00 +35°C° 0 mm 3 m/s 743 mmHg 33%
14:00 +34°C° 0 mm 3 m/s 743 mmHg 35%
15:00 +34°C° 0 mm 3 m/s 742 mmHg 36%
16:00 +33°C° 0 mm 3 m/s 742 mmHg 37%
17:00 +30°C° 0 mm 3 m/s 742 mmHg 42%
18:00 +28°C° 0 mm 2 m/s 742 mmHg 47%
19:00 +26°C° 0 mm 1 m/s 742 mmHg 52%
20:00 +25°C° 0 mm 1 m/s 743 mmHg 54%
21:00 +25°C° 0 mm 1 m/s 743 mmHg 56%
22:00 +24°C° 0 mm 1 m/s 743 mmHg 57%
23:00 +24°C° 0 mm 1 m/s 742 mmHg 59%

18 Junho, Sexta-feira

Tempo Temperatura Precipitação Vento Pressão Humidade
00:00 +24°C° 0 mm 1 m/s 742 mmHg 60%
01:00 +23°C° 0 mm 1 m/s 742 mmHg 62%
02:00 +23°C° 0 mm 1 m/s 742 mmHg 63%
03:00 +21°C° 0 mm 0 m/s 742 mmHg 65%
04:00 +20°C° 0 mm 0 m/s 742 mmHg 66%
05:00 +24°C° 0 mm 1 m/s 742 mmHg 59%
06:00 +26°C° 0 mm 1 m/s 743 mmHg 53%
07:00 +28°C° 0 mm 1 m/s 743 mmHg 46%
08:00 +30°C° 0 mm 1 m/s 743 mmHg 41%
09:00 +31°C° 0 mm 2 m/s 743 mmHg 37%
10:00 +34°C° 0 mm 2 m/s 743 mmHg 33%
11:00 +35°C° 0 mm 3 m/s 742 mmHg 31%
12:00 +35°C° 0 mm 3 m/s 742 mmHg 30%
13:00 +36°C° 0 mm 3 m/s 742 mmHg 29%
14:00 +35°C° 0 mm 3 m/s 742 mmHg 30%
15:00 +34°C° 0 mm 3 m/s 742 mmHg 31%
16:00 +33°C° 0 mm 3 m/s 741 mmHg 31%
17:00 +30°C° 0 mm 2 m/s 742 mmHg 37%
18:00 +28°C° 0 mm 2 m/s 742 mmHg 43%
19:00 +25°C° 0 mm 1 m/s 742 mmHg 49%
20:00 +25°C° 0 mm 1 m/s 742 mmHg 52%
21:00 +24°C° 0 mm 1 m/s 742 mmHg 54%
22:00 +23°C° 0 mm 1 m/s 743 mmHg 57%
23:00 +23°C° 0 mm 1 m/s 742 mmHg 58%

19 Junho, Sábado

Tempo Temperatura Precipitação Vento Pressão Humidade
00:00 +23°C° 0 mm 1 m/s 742 mmHg 59%
01:00 +23°C° 0 mm 1 m/s 742 mmHg 60%
02:00 +22°C° 0 mm 1 m/s 742 mmHg 61%
03:00 +22°C° 0 mm 1 m/s 742 mmHg 62%
04:00 +20°C° 0 mm 0 m/s 742 mmHg 62%
05:00 +24°C° 0 mm 1 m/s 742 mmHg 56%
06:00 +25°C° 0 mm 1 m/s 743 mmHg 50%
07:00 +27°C° 0 mm 1 m/s 743 mmHg 43%
08:00 +29°C° 0 mm 1 m/s 743 mmHg 39%
09:00 +31°C° 0 mm 2 m/s 743 mmHg 35%
10:00 +32°C° 0 mm 2 m/s 743 mmHg 31%
11:00 +34°C° 0 mm 3 m/s 743 mmHg 29%
12:00 +34°C° 0 mm 3 m/s 743 mmHg 28%
13:00 +35°C° 0 mm 3 m/s 743 mmHg 26%
14:00 +34°C° 0 mm 3 m/s 743 mmHg 27%
15:00 +34°C° 0 mm 3 m/s 743 mmHg 29%
16:00 +33°C° 0 mm 3 m/s 743 mmHg 30%
17:00 +29°C° 0 mm 3 m/s 743 mmHg 37%
18:00 +27°C° 0 mm 2 m/s 743 mmHg 44%
19:00 +25°C° 0 mm 2 m/s 743 mmHg 51%
20:00 +24°C° 0 mm 1 m/s 744 mmHg 55%
21:00 +23°C° 0 mm 1 m/s 744 mmHg 58%
22:00 +22°C° 0 mm 1 m/s 744 mmHg 62%
23:00 +22°C° 0 mm 1 m/s 744 mmHg 62%
Mostrar mais